owner,sensor,date,latitude,longitude,vertical_datum,direction_of_sea_water_velocity,sea_water_speed,upward_sea_water_velocity,qcFlag 
ADCP,ioos:station:wmo:42890:1,2012-12-01T00:14:00Z,27.6250,-90.4410,15.2,250.0,12.6,-9999.0,'11111222,11111222,99999999' 
ADCP,ioos:station:wmo:42890:1,2012-12-01T00:34:00Z,27.6250,-90.4410,15.2,244.0,6.6,-9999.0,'11133222,11111222,99999999' 
ADCP,ioos:station:wmo:42890:1,2012-12-01T00:54:00Z,27.6250,-90.4410,15.2,246.0,12.0,-9999.0,'11111222,11111222,99999999' 
ADCP,ioos:station:wmo:42890:1,2012-12-01T01:14:00Z,27.6250,-90.4410,15.2,249.0,12.3,-9999.0,'11111222,11111222,99999999' 
ADCP,ioos:station:wmo:42890:1,2012-12-01T01:34:00Z,27.6250,-90.4410,15.2,247.0,18.1,-9999.0,'11111222,11111222,99999999' 
ADCP,ioos:station:wmo:42890:1,2012-12-01T01:54:00Z,27.6250,-90.4410,15.2,243.0,18.8,-9999.0,'11111222,11111222,99999999' 
ADCP,ioos:station:wmo:42890:1,2012-12-01T02:14:00Z,27.6250,-90.4410,15.2,237.0,13.3,-9999.0,'11111222,11111222,99999999' 
ADCP,ioos:station:wmo:42890:1,2012-12-01T02:34:00Z,27.6250,-90.4410,15.2,239.0,17.3,-9999.0,'11111222,11111222,99999999' 
ADCP,ioos:station:wmo:42890:1,2012-12-01T02:54:00Z,27.6250,-90.4410,15.2,246.0,18.1,-9999.0,'11111222,11111222,99999999' 
ADCP,ioos:station:wmo:42890:1,2012-12-01T03:14:00Z,27.6250,-90.4410,15.2,246.0,15.6,-9999.0,'11111222,11111222,99999999' 
ADCP,ioos:station:wmo:42890:1,2012-12-01T03:34:00Z,27.6250,-90.4410,15.2,247.0,16.6,-9999.0,'11111222,11111222,99999999' 
ADCP,ioos:station:wmo:42890:1,2012-12-01T03:54:00Z,27.6250,-90.4410,15.2,247.0,16.8,-9999.0,'11111222,11111222,99999999' 
ADCP,ioos:station:wmo:42890:1,2012-12-01T04:14:00Z,27.6250,-90.4410,15.2,247.0,19.9,-9999.0,'11111222,11111222,99999999' 
ADCP,ioos:station:wmo:42890:1,2012-12-01T04:34:00Z,27.6250,-90.4410,15.2,241.0,15.4,-9999.0,'11111222,11111222,99999999' 
ADCP,ioos:station:wmo:42890:1,2012-12-01T04:54:00Z,27.6250,-90.4410,15.2,245.0,18.1,-9999.0,'11111222,11111222,99999999' 
ADCP,ioos:station:wmo:42890:1,2012-12-01T05:14:00Z,27.6250,-90.4410,15.2,243.0,21.2,-9999.0,'11111222,11111222,99999999' 
ADCP,ioos:station:wmo:42890:1,2012-12-01T05:34:00Z,27.6250,-90.4410,15.2,247.0,19.7,-9999.0,'11111222,11111222,99999999' 
ADCP,ioos:station:wmo:42890:1,2012-12-01T05:54:00Z,27.6250,-90.4410,15.2,248.0,19.7,-9999.0,'11111222,11111222,99999999' 
ADCP,ioos:station:wmo:42890:1,2012-12-01T06:14:00Z,27.6250,-90.4410,15.2,247.0,17.2,-9999.0,'11111222,11111222,99999999' 
ADCP,ioos:station:wmo:42890:1,2012-12-01T06:34:00Z,27.6250,-90.4410,15.2,257.0,15.5,-9999.0,'11111222,11111222,99999999' 
ADCP,ioos:station:wmo:42890:1,2012-12-01T06:54:00Z,27.6250,-90.4410,15.2,270.0,15.8,-9999.0,'11111222,11111222,99999999' 
ADCP,ioos:station:wmo:42890:1,2012-12-01T07:14:00Z,27.6250,-90.4410,15.2,269.0,22.7,-9999.0,'11111222,11111222,99999999' 
ADCP,ioos:station:wmo:42890:1,2012-12-01T07:34:00Z,27.6250,-90.4410,15.2,268.0,14.9,-9999.0,'11111222,11111222,99999999' 
ADCP,ioos:station:wmo:42890:1,2012-12-01T07:54:00Z,27.6250,-90.4410,15.2,273.0,19.8,-9999.0,'11111222,11111222,99999999' 
ADCP,ioos:station:wmo:42890:1,2012-12-01T08:14:00Z,27.6250,-90.4410,15.2,283.0,12.7,-9999.0,'11111222,11111222,99999999' 
ADCP,ioos:station:wmo:42890:1,2012-12-01T08:34:00Z,27.6250,-90.4410,15.2,281.0,18.0,-9999.0,'11111222,11111222,99999999' 
ADCP,ioos:station:wmo:42890:1,2012-12-01T08:54:00Z,27.6250,-90.4410,15.2,291.0,19.3,-9999.0,'11111222,11111222,99999999' 
ADCP,ioos:station:wmo:42890:1,2012-12-01T09:14:00Z,27.6250,-90.4410,15.2,299.0,21.7,-9999.0,'11111222,11111222,99999999' 
ADCP,ioos:station:wmo:42890:1,2012-12-01T09:34:00Z,27.6250,-90.4410,15.2,289.0,26.6,-9999.0,'11111222,11111222,99999999' 
ADCP,ioos:station:wmo:42890:1,2012-12-01T09:54:00Z,27.6250,-90.4410,15.2,293.0,28.7,-9999.0,'11111222,11111222,99999999' 
ADCP,ioos:station:wmo:42890:1,2012-12-01T10:14:00Z,27.6250,-90.4410,15.2,305.0,24.0,-9999.0,'11111222,11111222,99999999' 
ADCP,ioos:station:wmo:42890:1,2012-12-01T10:34:00Z,27.6250,-90.4410,15.2,312.0,21.5,-9999.0,'11111222,11111222,99999999' 
ADCP,ioos:station:wmo:42890:1,2012-12-01T10:54:00Z,27.6250,-90.4410,15.2,311.0,22.2,-9999.0,'11111222,11111222,99999999' 
ADCP,ioos:station:wmo:42890:1,2012-12-01T11:14:00Z,27.6250,-90.4410,15.2,310.0,22.3,-9999.0,'11111222,11111222,99999999' 
ADCP,ioos:station:wmo:42890:1,2012-12-01T11:34:00Z,27.6250,-90.4410,15.2,301.0,26.4,-9999.0,'11111222,11111222,99999999' 
ADCP,ioos:station:wmo:42890:1,2012-12-01T11:54:00Z,27.6250,-90.4410,15.2,313.0,22.3,-9999.0,'11111222,11111222,99999999' 
ADCP,ioos:station:wmo:42890:1,2012-12-01T12:14:00Z,27.6250,-90.4410,15.2,327.0,20.6,-9999.0,'11111222,11111222,99999999' 
ADCP,ioos:station:wmo:42890:1,2012-12-01T12:34:00Z,27.6250,-90.4410,15.2,322.0,20.4,-9999.0,'11111222,11111222,99999999' 
ADCP,ioos:station:wmo:42890:1,2012-12-01T12:54:00Z,27.6250,-90.4410,15.2,313.0,19.2,-9999.0,'11111222,11111222,99999999' 
ADCP,ioos:station:wmo:42890:1,2012-12-01T13:14:00Z,27.6250,-90.4410,15.2,331.0,14.6,-9999.0,'11111222,11111222,99999999' 
ADCP,ioos:station:wmo:42890:1,2012-12-01T13:34:00Z,27.6250,-90.4410,15.2,345.0,14.0,-9999.0,'11111222,11111222,99999999' 
ADCP,ioos:station:wmo:42890:1,2012-12-01T13:54:00Z,27.6250,-90.4410,15.2,350.0,13.8,-9999.0,'11111222,11111222,99999999' 
ADCP,ioos:station:wmo:42890:1,2012-12-01T14:14:00Z,27.6250,-90.4410,15.2,354.0,13.9,-9999.0,'11111222,11111222,99999999' 
ADCP,ioos:station:wmo:42890:1,2012-12-01T14:34:00Z,27.6250,-90.4410,15.2,355.0,14.4,-9999.0,'11111222,11111222,99999999' 
ADCP,ioos:station:wmo:42890:1,2012-12-01T14:54:00Z,27.6250,-90.4410,15.2,0.0,12.4,-9999.0,'11111222,11111222,99999999' 
ADCP,ioos:station:wmo:42890:1,2012-12-01T15:14:00Z,27.6250,-90.4410,15.2,339.0,11.3,-9999.0,'11111222,11111222,99999999' 
ADCP,ioos:station:wmo:42890:1,2012-12-01T15:34:00Z,27.6250,-90.4410,15.2,338.0,10.5,-9999.0,'11111222,11111222,99999999' 
ADCP,ioos:station:wmo:42890:1,2012-12-01T15:54:00Z,27.6250,-90.4410,15.2,338.0,12.1,-9999.0,'11111222,11111222,99999999' 
ADCP,ioos:station:wmo:42890:1,2012-12-01T16:14:00Z,27.6250,-90.4410,15.2,345.0,12.0,-9999.0,'11111222,11111222,99999999' 
ADCP,ioos:station:wmo:42890:1,2012-12-01T16:34:00Z,27.6250,-90.4410,15.2,339.0,12.1,-9999.0,'11111222,11111222,99999999' 
ADCP,ioos:station:wmo:42890:1,2012-12-01T16:54:00Z,27.6250,-90.4410,15.2,343.0,11.9,-9999.0,'11111222,11111222,99999999' 
ADCP,ioos:station:wmo:42890:1,2012-12-01T17:14:00Z,27.6250,-90.4410,15.2,332.0,11.8,-9999.0,'11111222,11111222,99999999' 
ADCP,ioos:station:wmo:42890:1,2012-12-01T17:34:00Z,27.6250,-90.4410,15.2,321.0,11.8,-9999.0,'11111222,11111222,99999999' 
ADCP,ioos:station:wmo:42890:1,2012-12-01T17:54:00Z,27.6250,-90.4410,15.2,324.0,11.6,-9999.0,'11111222,11111222,99999999' 
ADCP,ioos:station:wmo:42890:1,2012-12-01T18:14:00Z,27.6250,-90.4410,15.2,318.0,12.6,-9999.0,'11111222,11111222,99999999' 
ADCP,ioos:station:wmo:42890:1,2012-12-01T18:34:00Z,27.6250,-90.4410,15.2,310.0,12.1,-9999.0,'11111222,11111222,99999999' 
ADCP,ioos:station:wmo:42890:1,2012-12-01T18:54:00Z,27.6250,-90.4410,15.2,308.0,13.2,-9999.0,'11111222,11111222,99999999' 
ADCP,ioos:station:wmo:42890:1,2012-12-01T19:14:00Z,27.6250,-90.4410,15.2,308.0,12.1,-9999.0,'11111222,11111222,99999999' 
ADCP,ioos:station:wmo:42890:1,2012-12-01T19:34:00Z,27.6250,-90.4410,15.2,303.0,12.1,-9999.0,'11111222,11111222,99999999' 
ADCP,ioos:station:wmo:42890:1,2012-12-01T19:54:00Z,27.6250,-90.4410,15.2,299.0,10.4,-9999.0,'11111222,11111222,99999999' 
ADCP,ioos:station:wmo:42890:1,2012-12-01T20:14:00Z,27.6250,-90.4410,15.2,291.0,13.5,-9999.0,'11111222,11111222,99999999' 
ADCP,ioos:station:wmo:42890:1,2012-12-01T20:34:00Z,27.6250,-90.4410,15.2,292.0,11.4,-9999.0,'11111222,11111222,99999999' 
ADCP,ioos:station:wmo:42890:1,2012-12-01T20:54:00Z,27.6250,-90.4410,15.2,285.0,15.1,-9999.0,'11111222,11111222,99999999' 
ADCP,ioos:station:wmo:42890:1,2012-12-01T21:14:00Z,27.6250,-90.4410,15.2,313.0,10.5,-9999.0,'11111222,11111222,99999999' 
ADCP,ioos:station:wmo:42890:1,2012-12-01T21:34:00Z,27.6250,-90.4410,15.2,301.0,11.1,-9999.0,'11111222,11111222,99999999' 
ADCP,ioos:station:wmo:42890:1,2012-12-01T21:54:00Z,27.6250,-90.4410,15.2,292.0,11.7,-9999.0,'11111222,11111222,99999999' 
ADCP,ioos:station:wmo:42890:1,2012-12-01T22:14:00Z,27.6250,-90.4410,15.2,290.0,14.1,-9999.0,'11111222,11111222,99999999' 
ADCP,ioos:station:wmo:42890:1,2012-12-01T22:34:00Z,27.6250,-90.4410,15.2,291.0,14.1,-9999.0,'11111222,11111222,99999999' 
ADCP,ioos:station:wmo:42890:1,2012-12-01T22:54:00Z,27.6250,-90.4410,15.2,275.0,15.7,-9999.0,'11111222,11111222,99999999' 
ADCP,ioos:station:wmo:42890:1,2012-12-01T23:14:00Z,27.6250,-90.4410,15.2,274.0,16.5,-9999.0,'11111222,11111222,99999999' 
ADCP,ioos:station:wmo:42890:1,2012-12-01T23:34:00Z,27.6250,-90.4410,15.2,271.0,15.5,-9999.0,'11111222,11111222,99999999' 
ADCP,ioos:station:wmo:42890:1,2012-12-01T23:54:00Z,27.6250,-90.4410,15.2,277.0,18.6,-9999.0,'11111222,11111222,99999999' 
ADCP,ioos:station:wmo:42890:1,2012-12-02T00:14:00Z,27.6250,-90.4410,15.2,289.0,17.7,-9999.0,'11111222,11111222,99999999' 
ADCP,ioos:station:wmo:42890:1,2012-12-02T00:34:00Z,27.6250,-90.4410,15.2,247.0,14.5,-9999.0,'11111222,11111222,99999999' 
ADCP,ioos:station:wmo:42890:1,2012-12-02T00:54:00Z,27.6250,-90.4410,15.2,230.0,20.9,-9999.0,'11111222,11111222,99999999' 
ADCP,ioos:station:wmo:42890:1,2012-12-02T01:14:00Z,27.6250,-90.4410,15.2,256.0,17.7,-9999.0,'11111222,11111222,99999999' 
ADCP,ioos:station:wmo:42890:1,2012-12-02T01:34:00Z,27.6250,-90.4410,15.2,273.0,16.0,-9999.0,'11111222,11111222,99999999' 
ADCP,ioos:station:wmo:42890:1,2012-12-02T01:54:00Z,27.6250,-90.4410,15.2,274.0,19.6,-9999.0,'11111222,11111222,99999999' 
ADCP,ioos:station:wmo:42890:1,2012-12-02T02:14:00Z,27.6250,-90.4410,15.2,266.0,23.9,-9999.0,'11111222,11111222,99999999' 
ADCP,ioos:station:wmo:42890:1,2012-12-02T02:34:00Z,27.6250,-90.4410,15.2,250.0,10.9,-9999.0,'11111222,11111222,99999999' 
ADCP,ioos:station:wmo:42890:1,2012-12-02T02:54:00Z,27.6250,-90.4410,15.2,206.0,12.4,-9999.0,'11111222,11111222,99999999' 
ADCP,ioos:station:wmo:42890:1,2012-12-02T03:14:00Z,27.6250,-90.4410,15.2,228.0,9.5,-9999.0,'11133222,11111222,99999999' 
ADCP,ioos:station:wmo:42890:1,2012-12-02T03:34:00Z,27.6250,-90.4410,15.2,243.0,11.4,-9999.0,'11111222,11111222,99999999' 
ADCP,ioos:station:wmo:42890:1,2012-12-02T03:54:00Z,27.6250,-90.4410,15.2,242.0,11.9,-9999.0,'11111222,11111222,99999999' 
ADCP,ioos:station:wmo:42890:1,2012-12-02T04:14:00Z,27.6250,-90.4410,15.2,254.0,11.5,-9999.0,'11111222,11111222,99999999' 
ADCP,ioos:station:wmo:42890:1,2012-12-02T04:34:00Z,27.6250,-90.4410,15.2,246.0,10.2,-9999.0,'11111222,11111222,99999999' 
ADCP,ioos:station:wmo:42890:1,2012-12-02T04:54:00Z,27.6250,-90.4410,15.2,249.0,9.4,-9999.0,'11133222,11111222,99999999' 
ADCP,ioos:station:wmo:42890:1,2012-12-02T05:14:00Z,27.6250,-90.4410,15.2,257.0,10.5,-9999.0,'11111222,11111222,99999999' 
ADCP,ioos:station:wmo:42890:1,2012-12-02T05:34:00Z,27.6250,-90.4410,15.2,263.0,11.4,-9999.0,'11111222,11111222,99999999' 
ADCP,ioos:station:wmo:42890:1,2012-12-02T05:54:00Z,27.6250,-90.4410,15.2,268.0,10.7,-9999.0,'11111222,11111222,99999999' 
ADCP,ioos:station:wmo:42890:1,2012-12-02T06:14:00Z,27.6250,-90.4410,15.2,276.0,9.7,-9999.0,'11133222,11111222,99999999' 
ADCP,ioos:station:wmo:42890:1,2012-12-02T06:34:00Z,27.6250,-90.4410,15.2,285.0,11.4,-9999.0,'11111222,11111222,99999999' 
ADCP,ioos:station:wmo:42890:1,2012-12-02T06:54:00Z,27.6250,-90.4410,15.2,294.0,10.8,-9999.0,'11111222,11111222,99999999' 
ADCP,ioos:station:wmo:42890:1,2012-12-02T07:14:00Z,27.6250,-90.4410,15.2,295.0,12.2,-9999.0,'11111222,11111222,99999999' 
ADCP,ioos:station:wmo:42890:1,2012-12-02T07:34:00Z,27.6250,-90.4410,15.2,295.0,11.5,-9999.0,'11111222,11111222,99999999' 
ADCP,ioos:station:wmo:42890:1,2012-12-02T07:54:00Z,27.6250,-90.4410,15.2,299.0,9.0,-9999.0,'11133222,11111222,99999999' 
ADCP,ioos:station:wmo:42890:1,2012-12-02T08:14:00Z,27.6250,-90.4410,15.2,299.0,13.4,-9999.0,'11111222,11111222,99999999' 
ADCP,ioos:station:wmo:42890:1,2012-12-02T08:34:00Z,27.6250,-90.4410,15.2,304.0,14.5,-9999.0,'11111222,11111222,99999999' 
ADCP,ioos:station:wmo:42890:1,2012-12-02T08:54:00Z,27.6250,-90.4410,15.2,313.0,13.1,-9999.0,'11111222,11111222,99999999' 
ADCP,ioos:station:wmo:42890:1,2012-12-02T09:14:00Z,27.6250,-90.4410,15.2,319.0,13.5,-9999.0,'11111222,11111222,99999999' 
ADCP,ioos:station:wmo:42890:1,2012-12-02T09:34:00Z,27.6250,-90.4410,15.2,316.0,14.7,-9999.0,'11111222,11111222,99999999' 
ADCP,ioos:station:wmo:42890:1,2012-12-02T09:54:00Z,27.6250,-90.4410,15.2,318.0,18.0,-9999.0,'11111222,11111222,99999999' 
ADCP,ioos:station:wmo:42890:1,2012-12-02T10:14:00Z,27.6250,-90.4410,15.2,322.0,19.3,-9999.0,'11111222,11111222,99999999' 
ADCP,ioos:station:wmo:42890:1,2012-12-02T10:34:00Z,27.6250,-90.4410,15.2,324.0,20.1,-9999.0,'11111222,11111222,99999999' 
ADCP,ioos:station:wmo:42890:1,2012-12-02T10:54:00Z,27.6250,-90.4410,15.2,333.0,21.3,-9999.0,'11111222,11111222,99999999' 
ADCP,ioos:station:wmo:42890:1,2012-12-02T11:14:00Z,27.6250,-90.4410,15.2,346.0,22.2,-9999.0,'11111222,11111222,99999999' 
ADCP,ioos:station:wmo:42890:1,2012-12-02T11:34:00Z,27.6250,-90.4410,15.2,343.0,22.3,-9999.0,'11111222,11111222,99999999' 
ADCP,ioos:station:wmo:42890:1,2012-12-02T11:54:00Z,27.6250,-90.4410,15.2,344.0,22.8,-9999.0,'11111222,11111222,99999999' 
ADCP,ioos:station:wmo:42890:1,2012-12-02T12:14:00Z,27.6250,-90.4410,15.2,354.0,28.2,-9999.0,'11111222,11111222,99999999' 
ADCP,ioos:station:wmo:42890:1,2012-12-02T12:34:00Z,27.6250,-90.4410,15.2,317.0,24.5,-9999.0,'11111222,11111222,99999999' 
ADCP,ioos:station:wmo:42890:1,2012-12-02T12:54:00Z,27.6250,-90.4410,15.2,318.0,24.4,-9999.0,'11111222,11111222,99999999' 
ADCP,ioos:station:wmo:42890:1,2012-12-02T13:14:00Z,27.6250,-90.4410,15.2,320.0,21.9,-9999.0,'11111222,11111222,99999999' 
ADCP,ioos:station:wmo:42890:1,2012-12-02T13:34:00Z,27.6250,-90.4410,15.2,337.0,22.6,-9999.0,'11111222,11111222,99999999' 
ADCP,ioos:station:wmo:42890:1,2012-12-02T13:54:00Z,27.6250,-90.4410,15.2,330.0,21.0,-9999.0,'11111222,11111222,99999999' 
ADCP,ioos:station:wmo:42890:1,2012-12-02T14:14:00Z,27.6250,-90.4410,15.2,341.0,20.9,-9999.0,'11111222,11111222,99999999' 
ADCP,ioos:station:wmo:42890:1,2012-12-02T14:34:00Z,27.6250,-90.4410,15.2,339.0,21.6,-9999.0,'11111222,11111222,99999999' 
ADCP,ioos:station:wmo:42890:1,2012-12-02T14:54:00Z,27.6250,-90.4410,15.2,344.0,19.6,-9999.0,'11111222,11111222,99999999' 
ADCP,ioos:station:wmo:42890:1,2012-12-02T15:14:00Z,27.6250,-90.4410,15.2,345.0,18.8,-9999.0,'11111222,11111222,99999999' 
ADCP,ioos:station:wmo:42890:1,2012-12-02T15:34:00Z,27.6250,-90.4410,15.2,351.0,18.3,-9999.0,'11111222,11111222,99999999' 
ADCP,ioos:station:wmo:42890:1,2012-12-02T15:54:00Z,27.6250,-90.4410,15.2,351.0,18.7,-9999.0,'11111222,11111222,99999999' 
ADCP,ioos:station:wmo:42890:1,2012-12-02T16:14:00Z,27.6250,-90.4410,15.2,348.0,18.2,-9999.0,'11111222,11111222,99999999' 
ADCP,ioos:station:wmo:42890:1,2012-12-02T16:34:00Z,27.6250,-90.4410,15.2,349.0,17.2,-9999.0,'11111222,11111222,99999999' 
ADCP,ioos:station:wmo:42890:1,2012-12-02T16:54:00Z,27.6250,-90.4410,15.2,339.0,17.0,-9999.0,'11111222,11111222,99999999' 
ADCP,ioos:station:wmo:42890:1,2012-12-02T17:14:00Z,27.6250,-90.4410,15.2,354.0,16.4,-9999.0,'11111222,11111222,99999999' 
ADCP,ioos:station:wmo:42890:1,2012-12-02T17:34:00Z,27.6250,-90.4410,15.2,352.0,15.4,-9999.0,'11111222,11111222,99999999' 
ADCP,ioos:station:wmo:42890:1,2012-12-02T17:54:00Z,27.6250,-90.4410,15.2,343.0,15.8,-9999.0,'11111222,11111222,99999999' 
ADCP,ioos:station:wmo:42890:1,2012-12-02T18:14:00Z,27.6250,-90.4410,15.2,342.0,12.6,-9999.0,'11111222,11111222,99999999' 
ADCP,ioos:station:wmo:42890:1,2012-12-02T18:34:00Z,27.6250,-90.4410,15.2,333.0,12.3,-9999.0,'11111222,11111222,99999999' 
ADCP,ioos:station:wmo:42890:1,2012-12-02T18:54:00Z,27.6250,-90.4410,15.2,331.0,12.4,-9999.0,'11111222,11111222,99999999' 
ADCP,ioos:station:wmo:42890:1,2012-12-02T19:14:00Z,27.6250,-90.4410,15.2,325.0,11.9,-9999.0,'11111222,11111222,99999999' 
ADCP,ioos:station:wmo:42890:1,2012-12-02T19:34:00Z,27.6250,-90.4410,15.2,317.0,11.8,-9999.0,'11111222,11111222,99999999' 
ADCP,ioos:station:wmo:42890:1,2012-12-02T19:54:00Z,27.6250,-90.4410,15.2,316.0,11.1,-9999.0,'11111222,11111222,99999999' 
ADCP,ioos:station:wmo:42890:1,2012-12-02T20:14:00Z,27.6250,-90.4410,15.2,316.0,11.7,-9999.0,'11111222,11111222,99999999' 
ADCP,ioos:station:wmo:42890:1,2012-12-02T20:34:00Z,27.6250,-90.4410,15.2,318.0,11.3,-9999.0,'11111222,11111222,99999999' 
ADCP,ioos:station:wmo:42890:1,2012-12-02T20:54:00Z,27.6250,-90.4410,15.2,318.0,10.7,-9999.0,'11111222,11111222,99999999' 
ADCP,ioos:station:wmo:42890:1,2012-12-02T21:14:00Z,27.6250,-90.4410,15.2,323.0,10.2,-9999.0,'11111222,11111222,99999999' 
ADCP,ioos:station:wmo:42890:1,2012-12-02T21:34:00Z,27.6250,-90.4410,15.2,319.0,9.6,-9999.0,'11133222,11111222,99999999' 
ADCP,ioos:station:wmo:42890:1,2012-12-02T21:54:00Z,27.6250,-90.4410,15.2,317.0,10.5,-9999.0,'11111222,11111222,99999999' 
ADCP,ioos:station:wmo:42890:1,2012-12-02T22:14:00Z,27.6250,-90.4410,15.2,309.0,12.2,-9999.0,'11111222,11111222,99999999' 
ADCP,ioos:station:wmo:42890:1,2012-12-02T22:34:00Z,27.6250,-90.4410,15.2,310.0,10.6,-9999.0,'11111222,11111222,99999999' 
ADCP,ioos:station:wmo:42890:1,2012-12-02T22:54:00Z,27.6250,-90.4410,15.2,341.0,9.2,-9999.0,'11133222,11111222,99999999' 
ADCP,ioos:station:wmo:42890:1,2012-12-02T23:14:00Z,27.6250,-90.4410,15.2,10.0,8.6,-9999.0,'11133222,11111222,99999999' 
ADCP,ioos:station:wmo:42890:1,2012-12-02T23:34:00Z,27.6250,-90.4410,15.2,355.0,8.5,-9999.0,'11133222,11111222,99999999' 
ADCP,ioos:station:wmo:42890:1,2012-12-02T23:54:00Z,27.6250,-90.4410,15.2,307.0,9.6,-9999.0,'11133222,11111222,99999999' 
ADCP,ioos:station:wmo:42890:1,2012-12-03T00:14:00Z,27.6250,-90.4410,15.2,288.0,13.9,-9999.0,'11111222,11111222,99999999' 
ADCP,ioos:station:wmo:42890:1,2012-12-03T00:34:00Z,27.6250,-90.4410,15.2,287.0,13.7,-9999.0,'11111222,11111222,99999999' 
ADCP,ioos:station:wmo:42890:1,2012-12-03T00:54:00Z,27.6250,-90.4410,15.2,287.0,13.2,-9999.0,'11111222,11111222,99999999' 
ADCP,ioos:station:wmo:42890:1,2012-12-03T01:14:00Z,27.6250,-90.4410,15.2,282.0,14.6,-9999.0,'11111222,11111222,99999999' 
ADCP,ioos:station:wmo:42890:1,2012-12-03T01:34:00Z,27.6250,-90.4410,15.2,274.0,16.8,-9999.0,'11111222,11111222,99999999' 
ADCP,ioos:station:wmo:42890:1,2012-12-03T01:54:00Z,27.6250,-90.4410,15.2,275.0,13.3,-9999.0,'11111222,11111222,99999999' 
ADCP,ioos:station:wmo:42890:1,2012-12-03T02:14:00Z,27.6250,-90.4410,15.2,272.0,15.1,-9999.0,'11111222,11111222,99999999' 
ADCP,ioos:station:wmo:42890:1,2012-12-03T02:34:00Z,27.6250,-90.4410,15.2,270.0,12.5,-9999.0,'11111222,11111222,99999999' 
ADCP,ioos:station:wmo:42890:1,2012-12-03T02:54:00Z,27.6250,-90.4410,15.2,272.0,15.9,-9999.0,'11111222,11111222,99999999' 
ADCP,ioos:station:wmo:42890:1,2012-12-03T03:14:00Z,27.6250,-90.4410,15.2,270.0,14.1,-9999.0,'11111222,11111222,99999999' 
ADCP,ioos:station:wmo:42890:1,2012-12-03T03:34:00Z,27.6250,-90.4410,15.2,261.0,11.9,-9999.0,'11111222,11111222,99999999' 
ADCP,ioos:station:wmo:42890:1,2012-12-03T03:54:00Z,27.6250,-90.4410,15.2,246.0,9.7,-9999.0,'11133222,11111222,99999999' 
ADCP,ioos:station:wmo:42890:1,2012-12-03T04:14:00Z,27.6250,-90.4410,15.2,255.0,10.3,-9999.0,'11111222,11111222,99999999' 
ADCP,ioos:station:wmo:42890:1,2012-12-03T04:34:00Z,27.6250,-90.4410,15.2,254.0,11.2,-9999.0,'11111222,11111222,99999999' 
ADCP,ioos:station:wmo:42890:1,2012-12-03T04:54:00Z,27.6250,-90.4410,15.2,238.0,9.9,-9999.0,'11133222,11111222,99999999' 
ADCP,ioos:station:wmo:42890:1,2012-12-03T05:14:00Z,27.6250,-90.4410,15.2,249.0,10.1,-9999.0,'11111222,11111222,99999999' 
ADCP,ioos:station:wmo:42890:1,2012-12-03T05:34:00Z,27.6250,-90.4410,15.2,257.0,10.2,-9999.0,'11111222,11111222,99999999' 
ADCP,ioos:station:wmo:42890:1,2012-12-03T05:54:00Z,27.6250,-90.4410,15.2,259.0,10.7,-9999.0,'11111222,11111222,99999999' 
ADCP,ioos:station:wmo:42890:1,2012-12-03T06:14:00Z,27.6250,-90.4410,15.2,287.0,12.4,-9999.0,'11111222,11111222,99999999' 
ADCP,ioos:station:wmo:42890:1,2012-12-03T06:34:00Z,27.6250,-90.4410,15.2,293.0,16.1,-9999.0,'11111222,11111222,99999999' 
ADCP,ioos:station:wmo:42890:1,2012-12-03T06:54:00Z,27.6250,-90.4410,15.2,306.0,15.3,-9999.0,'11111222,11111222,99999999' 
ADCP,ioos:station:wmo:42890:1,2012-12-03T07:14:00Z,27.6250,-90.4410,15.2,316.0,14.6,-9999.0,'11111222,11111222,99999999' 
ADCP,ioos:station:wmo:42890:1,2012-12-03T07:34:00Z,27.6250,-90.4410,15.2,321.0,18.1,-9999.0,'11111222,11111222,99999999' 
ADCP,ioos:station:wmo:42890:1,2012-12-03T07:54:00Z,27.6250,-90.4410,15.2,326.0,16.1,-9999.0,'11111222,11111222,99999999' 
ADCP,ioos:station:wmo:42890:1,2012-12-03T08:14:00Z,27.6250,-90.4410,15.2,324.0,19.8,-9999.0,'11111222,11111222,99999999' 
ADCP,ioos:station:wmo:42890:1,2012-12-03T08:34:00Z,27.6250,-90.4410,15.2,322.0,23.5,-9999.0,'11111222,11111222,99999999' 
ADCP,ioos:station:wmo:42890:1,2012-12-03T08:54:00Z,27.6250,-90.4410,15.2,320.0,21.6,-9999.0,'11111222,11111222,99999999' 
ADCP,ioos:station:wmo:42890:1,2012-12-03T09:14:00Z,27.6250,-90.4410,15.2,322.0,20.2,-9999.0,'11111222,11111222,99999999' 
ADCP,ioos:station:wmo:42890:1,2012-12-03T09:34:00Z,27.6250,-90.4410,15.2,320.0,21.7,-9999.0,'11111222,11111222,99999999' 
ADCP,ioos:station:wmo:42890:1,2012-12-03T09:54:00Z,27.6250,-90.4410,15.2,323.0,20.7,-9999.0,'11111222,11111222,99999999' 
ADCP,ioos:station:wmo:42890:1,2012-12-03T10:14:00Z,27.6250,-90.4410,15.2,324.0,21.9,-9999.0,'11111222,11111222,99999999' 
ADCP,ioos:station:wmo:42890:1,2012-12-03T10:34:00Z,27.6250,-90.4410,15.2,326.0,22.4,-9999.0,'11111222,11111222,99999999' 
ADCP,ioos:station:wmo:42890:1,2012-12-03T10:54:00Z,27.6250,-90.4410,15.2,328.0,22.2,-9999.0,'11111222,11111222,99999999' 
ADCP,ioos:station:wmo:42890:1,2012-12-03T11:14:00Z,27.6250,-90.4410,15.2,328.0,24.7,-9999.0,'11111222,11111222,99999999' 
ADCP,ioos:station:wmo:42890:1,2012-12-03T11:34:00Z,27.6250,-90.4410,15.2,327.0,25.8,-9999.0,'11111222,11111222,99999999' 
ADCP,ioos:station:wmo:42890:1,2012-12-03T11:54:00Z,27.6250,-90.4410,15.2,329.0,27.5,-9999.0,'11111222,11111222,99999999' 
ADCP,ioos:station:wmo:42890:1,2012-12-03T12:14:00Z,27.6250,-90.4410,15.2,324.0,26.2,-9999.0,'11111222,11111222,99999999' 
ADCP,ioos:station:wmo:42890:1,2012-12-03T12:34:00Z,27.6250,-90.4410,15.2,313.0,26.0,-9999.0,'11111222,11111222,99999999' 
ADCP,ioos:station:wmo:42890:1,2012-12-03T12:54:00Z,27.6250,-90.4410,15.2,310.0,24.1,-9999.0,'11111222,11111222,99999999' 
ADCP,ioos:station:wmo:42890:1,2012-12-03T13:14:00Z,27.6250,-90.4410,15.2,316.0,21.9,-9999.0,'11111222,11111222,99999999' 
ADCP,ioos:station:wmo:42890:1,2012-12-03T13:34:00Z,27.6250,-90.4410,15.2,341.0,17.1,-9999.0,'11111222,11111222,99999999' 
ADCP,ioos:station:wmo:42890:1,2012-12-03T13:54:00Z,27.6250,-90.4410,15.2,334.0,17.5,-9999.0,'11111222,11111222,99999999' 
ADCP,ioos:station:wmo:42890:1,2012-12-03T14:14:00Z,27.6250,-90.4410,15.2,340.0,16.2,-9999.0,'11111222,11111222,99999999' 
ADCP,ioos:station:wmo:42890:1,2012-12-03T14:34:00Z,27.6250,-90.4410,15.2,326.0,17.6,-9999.0,'11111222,11111222,99999999' 
ADCP,ioos:station:wmo:42890:1,2012-12-03T14:54:00Z,27.6250,-90.4410,15.2,334.0,16.5,-9999.0,'11111222,11111222,99999999' 
ADCP,ioos:station:wmo:42890:1,2012-12-03T15:14:00Z,27.6250,-90.4410,15.2,321.0,17.3,-9999.0,'11111222,11111222,99999999' 
ADCP,ioos:station:wmo:42890:1,2012-12-03T15:34:00Z,27.6250,-90.4410,15.2,325.0,16.3,-9999.0,'11111222,11111222,99999999' 
ADCP,ioos:station:wmo:42890:1,2012-12-03T15:54:00Z,27.6250,-90.4410,15.2,320.0,16.0,-9999.0,'11111222,11111222,99999999' 
ADCP,ioos:station:wmo:42890:1,2012-12-03T16:14:00Z,27.6250,-90.4410,15.2,305.0,18.3,-9999.0,'11111222,11111222,99999999' 
ADCP,ioos:station:wmo:42890:1,2012-12-03T16:34:00Z,27.6250,-90.4410,15.2,302.0,17.9,-9999.0,'11111222,11111222,99999999' 
ADCP,ioos:station:wmo:42890:1,2012-12-03T16:54:00Z,27.6250,-90.4410,15.2,299.0,16.3,-9999.0,'11111222,11111222,99999999' 